Etusivu
METAR-TAF:

METAR-TAF

Lentoasemat :

Storuman, Ruotsi

Leveyspiiri: 64-57-39N, Pituuspiiri: 017-41-47E, korkeus merenpinnasta: 279 m

Tämänhetkinen sää

Tämä raportti tehtiin 27 minuuttia sitten, kello 23.50 UTC
tyyntä
Lämpötila 4°C
Kosteus 87%
Ilmanpaine 1012 hPa
Näkyvyys 10 km tai enemmän

METAR: ESUD 282350Z AUTO 00000KT 9999 NCD 04/02 Q1012

Aika: 02:17 (00:17 UTC)


TAF: puuttuu

Säähavainnot ja -ennusteet yli 4000 lentoasemalta (METAR- ja TAF-raportit).

Käytössä olevat sääasemat on merkitty karttaan keltaisilla ja punaisilla pisteillä.

Aseta hiiri pisteen päälle nähdäksesi sääaseman nimen.

Klikkaa sitten nähdäksesi säähavainnot ja -ennusteet.

Kartan vaihtaminen: klikkaa mustalla rastilla varustettuja vihreitä pisteitä, niin voit zoomata sisään; viivalla varustettua vihreää pistettä, niin voit zoomata ulos tai vihreitä nuolia, niin pääset viereisille kartoille.


METAR-TAF: